Location: Berlin
(38.3226°N, 75.2177°W)
Time: 02:29:24
(UTC+00:00)

Daily predictions for brighter satellites

Satellite Brightness Start Highest point End
(mag) Time Altitude Azimuth Time Altitude Azimuth Time Altitude Azimuth
CZ-4 R/B 2.4 00:51:04 10° S 00:54:52 48° W 00:58:45 10° NNW
Cosmos 2285 Rocket 4.2 00:49:40 10° SSW 00:56:00 84° WNW 01:02:25 10° NNE
Cosmos 1328 Rocket 3.7 00:52:30 10° S 00:56:46 81° W 01:01:04 10° N
KORONAS-FOTON 4.5 00:56:00 10° SSE 00:59:21 33° E 01:02:45 10° NNE
Cosmos 1066 Rocket 4.3 00:54:30 10° S 01:00:19 77° E 01:06:07 10° NNE
Cosmos 2251 Rocket 3.9 00:55:25 10° SSW 01:00:40 72° WNW 01:06:00 10° NNE
Cosmos 1842 3.5 01:01:28 10° SSE 01:04:56 43° E 01:08:26 10° NNE
Centaur D AC-29 3.4 01:00:36 10° SW 01:05:20 37° SSE 01:23:31 10° E
Cosmos 407 Rocket 4.3 01:01:06 10° SSW 01:06:13 56° WNW 01:11:19 10° N
Cosmos 540 Rocket 4.3 01:05:09 10° N 01:09:55 36° ENE 01:14:28 11° SE
BREEZE-M DEB (TANK) 2.7 01:08:54 10° WSW 01:11:16 56° NNW 01:13:46 10° NE
MOS 1-B Rocket 4.0 01:07:03 10° SSE 01:13:24 88° WSW 01:19:08 10° NNW
Cosmos 2082 Rocket 2.9 01:10:51 10° SW 01:16:29 59° WNW 01:22:07 10° NNE
SL-16 R/B 3.7 01:12:23 10° N 01:16:52 23° NE 01:21:20 10° ESE
Cosmos 2333 Rocket 4.4 01:16:20 10° NNE 01:18:18 12° NE 01:20:16 10° ENE
Cosmos 2369 3.7 01:15:16 10° NNW 01:21:02 80° ENE 01:26:39 11° SSE
Cosmos 1954 Rocket 4.0 01:17:37 10° SSW 01:22:54 79° ESE 01:28:11 10° NNE
Atlas Centaur 2 3.3 01:16:38 10° WSW 01:24:14 49° S 01:32:06 10° ESE
USA 186 4.1 01:22:29 10° SSW 01:25:16 24° W 01:28:04 10° NW
Okean-O 2.7 01:21:19 10° SSE 01:25:40 66° ENE 01:30:03 10° N
SeaSat 1 3.7 01:22:39 11° ESE 01:26:34 27° NE 01:30:41 10° N
Cosmos 1515 Rocket 3.6 01:24:19 10° S 01:28:37 81° W 01:32:57 10° N
Cosmos 1707 2.4 01:26:31 10° S 01:30:06 73° E 01:33:42 10° NNE
PSLV R/B 4.4 01:29:10 10° S 01:32:36 47° W 01:36:01 10° NNW
Cosmos 1633 Rocket 4.3 01:29:07 10° NNW 01:33:14 42° W 01:37:20 10° SSW
Cosmos 676 Rocket 4.0 01:28:36 10° SSW 01:33:54 80° ESE 01:39:14 10° NNE
CZ-4C R/B 3.4 01:33:28 10° NNE 01:37:38 83° ESE 01:41:44 10° S
SPOT 5 2.7 01:35:09 15° SSE 01:38:34 60° ENE 01:42:51 10° N
MetOp-B 4.2 01:35:06 14° SSE 01:39:44 65° ENE 01:45:03 10° N
Cosmos 1553 Rocket 4.0 01:36:08 10° N 01:42:21 80° E 01:48:23 11° S
Cosmos 2228 Rocket 4.4 01:41:13 18° ESE 01:43:05 23° E 01:46:40 10° NE
S3M 4.5 01:39:41 10° N 01:45:44 44° ENE 01:49:59 19° SE
Okean O Rocket 3.0 01:41:55 10° SSW 01:45:59 36° W 01:50:02 10° NNW
Cosmos 1470 Rocket 4.4 01:43:28 10° NNW 01:47:38 47° W 01:51:46 10° SSW
Tiangong -2.2 01:45:57 10° WNW 01:49:07 78° SSW 01:50:36 28° ESE
Cosmos 1869 Rocket 3.9 01:46:22 10° N 01:50:42 48° E 01:53:12 23° SE
Cosmos 2266 Rocket 4.1 01:46:23 11° S 01:52:26 61° E 01:58:43 10° NNE
ASTRO E2 4.2 01:51:01 10° SSW 01:52:23 15° S 01:52:23 15° S
ERS-1 Rocket 3.2 01:50:49 20° SE 01:54:06 55° ENE 01:59:01 10° N
Cosmos 1400 Rocket 2.8 01:53:37 21° SSE 01:56:00 54° E 01:59:47 10° NNE
Cosmos 1980 Rocket 3.5 01:53:20 10° NW 01:58:27 36° WSW 02:03:32 10° S
Cosmos 841 Rocket 4.1 01:54:07 10° N 01:59:08 44° ENE 02:01:57 24° SE
Timation 1 Rocket 4.3 01:53:23 10° SSW 01:59:17 72° ESE 02:05:14 10° NNE
Cosmos 2322 Rocket 3.3 01:54:58 10° N 02:00:01 32° ENE 02:03:10 19° ESE
Cosmos 1763 Rocket 4.1 01:55:53 10° NNW 02:00:56 52° WSW 02:05:09 14° S
USA 234 3.5 01:57:43 10° NE 02:04:14 72° NW 02:10:42 10° WSW
ATLAS CENTAUR R/B 0.9 02:01:45 16° SSW 02:04:19 58° ESE 02:07:48 10° NE
Spot 2 Rocket 3.8 02:02:20 25° SE 02:05:05 52° ENE 02:10:01 10° N
Cosmos 1300 3.7 02:05:43 10° NNE 02:08:47 27° ENE 02:09:14 26° E
Cosmos 1441 Rocket 3.2 02:05:39 10° NNW 02:09:15 71° W 02:11:03 28° S
Cosmos 1933 Rocket 4.2 02:07:33 10° NNW 02:11:53 52° W 02:15:12 16° SSW
Cosmos 2278 3.7 02:06:11 10° NNW 02:11:56 83° ENE 02:15:10 27° SSE
Meteor 2-10 Rocket 3.9 02:07:30 10° N 02:12:53 51° ENE 02:15:21 29° SE
Resurs 01 Rocket 4.3 02:13:04 10° WSW 02:15:14 13° W 02:17:22 10° WNW
Cosmos 1908 3.8 02:13:56 10° NNW 02:17:26 49° W 02:19:19 24° SSW
Terra 1.7 02:16:12 30° SSE 02:18:34 82° ENE 02:23:18 10° N
Cosmos 1862 Rocket 4.1 02:18:11 34° SE 02:19:14 40° E 02:23:21 10° NNE
Cosmos 2219 Rocket 3.9 02:21:16 10° N 02:25:32 21° NE 02:28:14 16° E
Cosmos 2237 4.2 02:21:37 10° NNW 02:27:22 83° WSW 02:30:11 32° SSE
Landsat 5 3.7 02:25:12 10° NNE 02:29:08 49° E 02:29:45 44° SE
Ariane Rocket 2.9 02:27:25 33° SSE 02:29:46 85° ENE 02:34:53 10° NNW
Okean 3 3.7 02:32:22 43° ESE 02:32:46 44° E 02:36:43 10° NNE
SL-27 R/B 2.5 02:38:02 54° N 02:38:02 54° N 02:40:21 10° NNE
SL-14 R/B 3.3 02:37:33 41° SSW 02:38:43 72° W 02:42:31 10° N
Cosmos 1707 Rocket 3.5 02:38:10 40° S 02:39:45 88° E 02:44:12 10° N
SJ 16-02 1.3 02:40:03 52° SE 02:40:35 57° ESE 02:44:49 10° NNE
Cosmos 2315 Rocket 4.0 02:35:15 10° N 02:41:39 84° E 02:44:42 34° S
Cosmos 1850 Rocket 4.4 02:38:38 11° SSW 02:43:35 63° WNW 02:48:45 10° NNE
Landsat 4 3.6 02:44:04 58° SW 02:44:24 62° WSW 02:47:49 10° NNW
ATLAS 2AS CENTAUR R/B 3.1 02:40:23 10° NNW 02:47:00 51° NE 02:50:04 30° ESE
Meteor 1-4 Rocket 3.6 02:49:24 28° NE 02:49:24 28° NE 02:51:03 10° NNE
Cosmos 2360 Rocket 2.3 02:44:50 10° NNW 02:50:29 63° ENE 02:52:15 42° SE
Cosmos 1346 Rocket 2.5 02:47:12 10° N 02:51:04 82° E 02:51:15 78° SE
Cosmos 1932 4.3 02:46:56 18° SSW 02:51:44 76° ESE 02:58:02 10° NE
SPOT 3 Rocket 3.8 02:51:37 36° SSW 02:53:36 63° WSW 02:58:44 10° NNW
ARIANE 5 R/B 4.2 02:53:45 21° ENE 02:54:05 21° ENE 02:57:21 10° NNE
RESURS DK-1 2.3 02:51:09 10° NNW 02:55:13 72° WSW 02:55:35 66° SSW
Cosmos 968 Rocket 3.8 02:57:17 24° SW 03:00:23 65° WNW 03:05:33 10° NNE
SL-16 R/B 2.8 02:55:46 10° NW 03:01:12 49° WSW 03:03:14 34° SSW
USA 281 4.2 02:58:49 25° ESE 03:01:42 36° ENE 03:07:36 10° N
MOS 1 Rocket 4.3 02:59:27 29° SSW 03:01:48 48° W 03:06:58 10° NNW
Cosmos 2333 Rocket 2.2 02:57:48 10° NNW 03:03:34 75° ENE 03:05:07 49° SE
SeaSat 1 3.4 03:02:21 30° SSW 03:03:49 37° WSW 03:08:23 10° NW
Meteor 2-20 4.4 02:58:47 10° N 03:04:58 89° E 03:07:03 45° S
Cosmos 1733 Rocket 3.2 03:00:43 10° NNW 03:05:07 69° W 03:05:48 57° SSW
Cosmos 1758 4.2 03:06:08 10° NNW 03:09:48 40° W 03:10:17 38° WSW
Cosmos 1455 3.5 03:08:06 10° NNE 03:10:21 28° NE 03:10:21 28° NE
Okean 1-7 2.9 03:11:25 78° E 03:11:26 78° E 03:15:45 10° N
Iridium 51 4.5 03:12:29 72° SSW 03:12:52 81° W 03:17:14 10° N
Atlas Centaur 2 3.4 03:05:34 10° W 03:13:10 40° SSW 03:14:19 38° S
Cosmos 839 Rocket 4.4 03:06:58 10° NNW 03:13:32 56° NE 03:15:34 39° ESE
Cosmos 1814 Rocket 4.0 03:09:11 10° NNW 03:14:30 72° ENE 03:15:23 59° SE
GP-B 3.8 03:12:23 10° NNE 03:16:05 39° ENE 03:16:05 39° ENE
Cosmos 1908 Rocket 4.0 03:14:39 10° N 03:18:33 47° ENE 03:18:33 47° ENE
Cosmos 1745 Rocket 4.3 03:24:05 45° ESE 03:25:03 49° E 03:31:08 10° NNE
Meteor 1-16 Rocket 4.3 03:20:59 10° NNW 03:26:55 79° W 03:28:17 55° S
MetOp-A 4.4 03:30:40 47° SW 03:31:35 53° W 03:36:44 10° NNW
Cosmos 2333 4.1 03:27:33 10° NNW 03:33:21 82° WSW 03:34:15 64° S
Okean 2 4.0 03:36:15 51° WNW 03:36:15 51° WNW 03:39:58 10° N
Nadezhda 1 Rocket 4.1 03:32:41 10° N 03:38:53 57° E 03:39:51 51° ESE
Cosmos 1386 Rocket 4.4 03:37:51 59° SSE 03:39:01 76° E 03:45:15 10° N
ATLAS CENTAUR R/B 4.3 03:41:23 10° WNW 03:42:20 11° NW 03:43:19 10° NNW
Cosmos 2322 Rocket 3.2 03:38:57 10° NW 03:44:00 34° WSW 03:44:58 32° SW
ALOS 2 4.2 03:45:46 25° ENE 03:45:46 25° ENE 03:49:06 10° NNE
Cosmos 2297 Rocket 3.3 03:47:54 29° E 03:47:54 29° E 03:51:46 10° NE
Cosmos 1315 Rocket 4.2 03:49:43 32° WNW 03:49:44 32° WNW 03:53:22 10° N
Cosmos 1953 3.5 03:51:53 10° NNW 03:54:38 38° NW 03:54:38 38° NW
Cosmos 1703 Rocket 4.2 03:55:52 51° WNW 03:55:52 51° WNW 04:00:08 10° N
Meteor 2-5 Rocket 4.4 03:59:22 41° E 03:59:22 41° E 04:04:48 10° NNE
Cosmos 1486 Rocket 4.0 04:06:10 69° ENE 04:06:10 69° ENE 04:10:55 10° NNE
COSMOS 2428 2.8 04:03:09 10° NNW 04:08:49 66° ENE 04:09:13 63° E
Cosmos 2219 Rocket 2.4 04:04:17 10° NNW 04:09:49 55° WSW 04:09:56 55° WSW
Cosmos 2242 Rocket 4.1 04:10:52 57° NNE 04:10:52 57° NNE 04:14:34 10° N
Cosmos 371 Rocket 3.7 04:12:00 54° NE 04:12:00 54° NE 04:15:51 10° NNE
BlueWalker 3 3.7 04:15:31 30° NNW 04:15:31 30° NNW 04:18:44 10° NNE
SJ 16-02 4.1 04:17:32 10° W 04:19:17 12° WNW 04:21:04 10° NW
H-2A R/B 3.3 04:22:54 50° NNW 04:22:54 50° NNW 04:26:10 10° NNW
Cosmos 1709 Rocket 3.9 04:23:45 70° SSW 04:24:32 82° W 04:30:57 10° N
NOSS 0 Rocket 4.1 04:18:59 10° NNW 04:25:11 61° ENE 04:26:04 55° E
COSMOS 2455 2.9 04:24:43 65° WSW 04:25:31 75° WNW 04:31:35 10° NNE
CZ-4C R/B 2.1 04:28:06 61° N 04:28:06 61° N 04:32:37 10° NNE
ARIANE 5 R/B 4.1 04:31:12 28° WNW 04:31:12 28° WNW 04:34:06 10° NW
Spot 4 4.2 04:31:54 61° NW 04:31:54 61° NW 04:36:02 10° NNW
Cosmos 2360 Rocket 4.2 04:30:30 10° WNW 04:33:49 16° W 04:34:00 16° W
ATLAS 2AS CENTAUR R/B 3.7 04:31:55 10° NW 04:37:28 29° WSW 04:37:28 29° WSW
USA 281 3.8 04:45:41 41° WSW 04:46:03 41° WSW 04:52:13 10° NW
Cosmos 2333 Rocket 4.3 04:44:21 10° WNW 04:47:06 14° W 04:47:07 14° W
PSLV R/B 4.5 04:47:07 10° N 04:50:04 45° N 04:50:04 45° N
CZ-2C R/B 4.2 04:50:23 35° W 04:51:32 40° WNW 05:05:10 10° N
Cosmos 2098 Rocket 3.8 04:46:45 10° N 04:53:24 88° E 04:53:52 79° SSE
SL-16 R/B 4.2 04:57:26 10° N 05:01:46 22° NE 05:04:46 15° E
Cosmos 332 Rocket 4.2 05:05:28 60° NNE 05:05:28 60° NNE 05:09:29 10° NNE
Meteor 1-24 Rocket 4.3 05:08:46 48° W 05:09:08 48° WNW 05:14:40 10° N
Cosmos 2237 Rocket 2.1 05:03:42 10° NNW 05:09:20 80° ENE 05:09:20 80° ENE
Cosmos 2227 Rocket 2.1 05:10:41 80° ENE 05:10:41 80° ENE 05:16:09 10° NNE
SL-4 R/B 3.4 05:06:42 10° NW 05:10:26 37° NNE 05:10:26 37° NNE
Cosmos 773 Rocket 4.3 05:07:08 10° NNW 05:11:26 57° WNW 05:11:26 57° WNW
H-2A R/B 3.0 05:11:22 10° N 05:14:25 45° N 05:14:25 45° N
Cosmos 1825 4.3 05:23:12 23° N 05:23:12 23° N 05:24:38 10° N
ALOS 2 4.5 05:23:09 22° WNW 05:23:09 22° WNW 05:25:26 10° NW
Cosmos 2151 Rocket 4.5 05:17:57 10° NNW 05:21:05 45° NNW 05:21:05 45° NNW
Cosmos 1980 3.7 05:16:47 10° NNW 05:22:05 71° WNW 05:22:05 71° WNW
GEOS 3 Rocket 3.7 05:20:01 10° NNE 05:25:08 68° NW 05:25:12 68° WNW
Okean 2 Rocket 4.0 05:24:38 10° NNW 05:27:55 46° NW 05:27:55 46° NW
Cosmos 2297 Rocket 3.3 05:29:40 32° W 05:30:46 34° WNW 05:35:55 10° N
Cosmos 2181 Rocket 4.1 05:25:08 10° NNW 05:31:09 56° W 05:31:22 56° W
Cosmos 2219 3.2 05:33:16 68° E 05:33:16 68° E 05:38:39 10° NNE
CENTAUR R/B 2.2 05:33:38 78° W 05:33:55 82° WNW 05:40:35 10° NNE
Cosmos 2074 Rocket 4.0 05:38:32 60° WSW 05:39:03 62° W 05:45:14 10° N
Cosmos 1025 Rocket 3.7 05:40:57 52° N 05:40:57 52° N 05:44:16 10° N
Aureole 1 Rocket 4.4 05:42:32 29° NE 05:42:32 29° NE 05:44:48 10° NNE
Helios 1A Rocket 4.0 05:58:05 37° NE 05:58:05 37° NE 06:01:00 10° N
Cosmos 1937 Rocket 4.0 05:58:26 48° ESE 05:58:27 48° ESE 06:03:29 10° NNE
Cosmos 1461 4.3 06:00:58 31° ENE 06:00:58 31° ENE 06:03:18 10° NE
Cosmos 1898 Rocket 3.4 06:01:58 73° E 06:01:58 73° E 06:07:03 10° NNE
Cosmos 2263 Rocket 2.0 06:03:48 82° S 06:04:03 87° ESE 06:09:40 10° NNE
Resurs 1-4 Rocket 3.6 06:01:01 10° NE 06:05:15 24° E 06:06:19 23° ESE
CZ-4C R/B 4.5 06:14:48 10° WNW 06:17:03 13° NNW 06:19:31 10° N
Nadezhda 3 Rocket 4.2 06:13:38 10° NNW 06:19:40 51° W 06:20:15 49° WSW
NOSS 3-2 (A) 3.4 06:18:58 51° W 06:19:45 56° NW 06:25:32 10° NNE
Cosmos 2218 Rocket 4.2 06:18:48 48° SSE 06:20:21 64° E 06:26:29 10° NNE
Cosmos 1844 Rocket 4.3 06:22:41 21° ESE 06:24:07 23° E 06:28:23 10° NE
NOSS 3-2 (C) 3.0 06:25:20 67° SSE 06:25:42 70° ESE 06:31:28 10° NE
Cosmos 2366 rocket 4.0 06:25:41 53° SSE 06:27:15 76° E 06:33:31 10° N
Cosmos 1869 3.9 06:28:14 10° N 06:31:19 49° NE 06:31:19 49° NE
USA 267 4.1 06:29:23 10° ENE 06:35:14 34° SE 06:36:41 31° SSE
In-Cosmos 22 Rocket 4.4 06:35:13 52° WSW 06:36:04 57° WNW 06:41:49 10° N
Cosmos 1680 Rocket 4.1 06:32:27 10° N 06:37:32 51° ENE 06:40:02 28° SE
Cosmos 1437 Rocket 4.3 06:37:53 27° E 06:38:06 27° E 06:41:21 10° NE
Cosmos 1818 4.3 06:33:55 10° NNW 06:39:15 51° NE 06:44:20 11° SE
Cosmos 1544 Rocket 3.7 06:36:12 10° N 06:40:38 67° E 06:41:02 63° ESE
MSX 4.0 06:35:12 10° NNE 06:40:53 62° ESE 06:42:31 44° SSE
Cosmos 2228 3.5 06:40:28 10° N 06:44:41 52° E 06:45:26 46° ESE
SL-16 R/B 2.3 06:40:40 10° NNW 06:46:13 54° WSW 06:46:35 53° WSW
BREEZE-M DEB (TANK) 3.2 06:49:10 35° NE 06:49:11 35° NE 06:52:49 10° ESE
Cosmos 1975 Rocket 4.2 06:49:56 30° WNW 06:49:56 30° WNW 06:53:31 10° NNW
SL-16 R/B 4.2 06:46:08 10° SE 06:51:28 31° ENE 06:56:49 10° N
Cosmos 2082 4.5 06:51:06 34° W 06:52:30 40° WNW 06:57:47 10° N
Cosmos 2237 Rocket 4.4 06:50:36 10° WNW 06:51:07 11° W 06:51:07 11° W
Cosmos 2227 Rocket 4.4 06:52:28 11° W 06:55:12 15° NW 06:58:20 10° NNW
IDEFIX/ARIANE 42P 2.5 06:51:01 10° N 06:56:16 82° WNW 06:57:28 54° SSW
CZ-2C R/B 2.8 06:55:47 31° SSE 06:58:19 68° ENE 07:03:39 10° N
SL-8 Rocket 4.3 06:57:09 42° WSW 06:58:43 51° W 07:04:43 10° N
H-2A R/B 3.2 06:55:51 10° N 06:59:50 81° WNW 06:59:56 80° WSW
Cosmos 1943 3.6 06:55:28 10° NNW 07:01:02 60° ENE 07:06:03 13° SE
CZ-2C R/B 3.2 06:56:49 10° NNE 07:02:09 65° E 07:03:52 41° SSE
CZ-2D R/B 2.0 07:00:36 10° NNE 07:05:58 85° ESE 07:07:38 46° S
FENGYUN 3A 4.0 07:03:42 10° NNE 07:09:01 58° E 07:11:23 32° SSE
ASTEX 1 4.3 07:12:57 17° SE 07:16:25 45° ENE 07:21:01 10° N
Cosmos 921 Rocket 4.5 07:13:08 10° N 07:17:00 34° ENE 07:20:47 10° SE
BREEZE-M DEB (TANK) 4.4 07:13:22 28° SSW 07:17:16 40° SSE 07:21:14 10° ENE
Cosmos 1536 Rocket 3.7 07:18:23 51° WSW 07:19:08 59° W 07:23:31 10° N
Cosmos 1606 4.1 07:17:44 10° NNW 07:19:53 24° WNW 07:19:53 24° WNW
Cosmos 1727 Rocket 4.0 07:15:11 10° N 07:21:34 89° E 07:25:41 24° S
Cosmos 1867 3.5 07:20:35 41° SSW 07:22:33 87° WNW 07:28:03 10° NNE
NPP 4.1 07:17:46 10° N 07:22:57 48° WNW 07:24:46 35° WSW
USA 238 DEB 3.5 07:28:49 33° SW 07:31:46 75° NW 07:38:23 10° NNE
USA 238 3.5 07:28:52 33° SW 07:31:48 76° NW 07:38:26 10° NNE
ADEOS II 2.0 07:26:37 10° NNE 07:31:52 84° WNW 07:34:19 33° SSW
Cosmos 1844 3.7 07:33:31 31° SSW 07:36:23 86° ESE 07:42:12 10° NNE
Cosmos 2058 4.3 07:36:27 14° SSE 07:39:21 33° E 07:43:01 10° NNE
Iridium 2 3.7 07:39:24 37° ESE 07:39:36 38° E 07:41:56 10° NNE
Dummy Sat-02 4.5 07:37:12 10° N 07:40:52 85° W 07:42:06 40° S
Meteor 2-13 Rocket 4.5 07:36:46 10° NNW 07:42:45 61° W 07:46:27 24° SSW
Resurs 1-4 Rocket 2.8 07:40:15 10° N 07:45:06 39° WNW 07:47:23 26° WSW
SAR-Lupe-4 4.0 07:43:10 10° NNE 07:46:42 56° ESE 07:48:22 27° S
ATLAS 5 CENTAUR R/B 3.4 07:45:14 10° SE 07:46:45 13° ESE 07:48:19 10° E
Cosmos 2263 Rocket 4.3 07:45:53 10° W 07:48:42 14° NW 07:51:32 10° NNW
UNK 4.4 07:48:49 10° SSE 07:53:19 56° ENE 07:57:49 10° N
AQUA 4.0 07:52:54 10° N 07:57:31 55° WNW 08:00:01 26° SW
Meteor 1-28 Rocket 3.2 08:01:25 29° SSW 08:02:57 52° W 08:06:25 10° NNW
Cosmos 1844 Rocket 3.2 08:04:20 22° SW 08:07:38 44° WNW 08:12:58 10° N
Cosmos 1892 Rocket 3.6 08:05:36 23° SSW 08:08:11 62° W 08:12:35 10° N
Cosmos 2058 Rocket 3.5 08:05:23 10° N 08:09:47 61° E 08:14:06 10° SSE
Delta 2 Rocket 3.5 08:07:47 21° WSW 08:10:09 49° S 08:14:21 10° ESE
ALOS 2.4 08:05:55 10° N 08:10:26 56° WNW 08:13:24 21° SW
METEOR-M 4.4 08:06:37 10° NNE 08:11:56 66° ESE 08:17:14 10° S
Cosmos 1544 2.9 08:11:40 19° SSE 08:13:18 50° E 08:15:52 10° NNE
Cosmos 1607 4.1 08:08:51 10° NNW 08:15:17 81° ENE 08:21:32 10° SSE
NOSS 2-2 (C) 3.8 08:13:29 17° S 08:15:46 40° ESE 08:18:43 10° NE
Alouette 2 Rocket 3.8 08:14:22 18° SSW 08:18:03 58° W 08:21:52 10° N
USA 267 3.5 08:11:58 10° NE 08:18:25 63° NW 08:24:01 14° WSW
Cosmos 1605 Rocket 4.1 08:12:55 10° S 08:19:08 81° E 08:25:17 10° N
NOSS 2-2 (D) 4.4 08:21:24 11° S 08:24:27 30° ESE 08:27:17 10° NE
NOSS 2-3 (E) 4.4 08:21:24 11° S 08:24:33 34° ESE 08:27:57 10° NE
NOSS 2-3 (C) 4.2 08:26:38 11° S 08:29:51 39° ESE 08:33:21 10° NE
Cosmos 2278 Rocket 4.4 08:25:55 10° SSE 08:30:04 21° E 08:34:15 10° NE
CZ-4 R/B 3.9 08:25:53 10° NNE 08:30:49 89° WNW 08:35:48 10° SSW
H-2A R/B 4.1 08:28:33 10° NE 08:32:57 26° E 08:37:15 10° SSE
SL-16 R/B 3.0 08:29:01 10° SSW 08:34:50 41° W 08:40:41 10° NNW
Cosmos 1603 4.3 08:29:50 10° NW 08:34:59 35° WSW 08:40:04 10° SSW
Cosmos 1626 Rocket 3.7 08:30:38 10° S 08:35:03 80° E 08:39:29 10° N
CZ-2C R/B 4.4 08:37:15 11° WSW 08:39:03 13° W 08:41:33 10° WNW
IRS-1D 3.9 08:34:44 10° NNE 08:39:52 64° ESE 08:44:51 10° S
Meteor 2-19 Rocket 4.5 08:35:20 10° NNW 08:41:26 66° W 08:47:31 10° S
Cosmos 2123 Rocket 4.4 08:36:32 10° NNW 08:42:20 44° W 08:48:08 10° SSW
SWAS 4.4 08:38:25 11° SSW 08:42:28 88° ESE 08:46:41 10° NNE
SEDSat Delta rocket 3.7 08:41:06 13° WSW 08:44:07 31° S 08:47:44 10° ESE
CZ-2D R/B 4.2 08:43:12 10° NW 08:45:10 12° WNW 08:47:07 10° W
Cosmos 1271 Rocket 3.6 08:45:14 10° SSE 08:48:39 45° E 08:52:05 10° NNE
USA 234 4.3 08:44:59 10° ESE 08:51:16 51° NE 08:57:33 10° NW
Envisat 3.4 08:48:04 10° N 08:52:56 48° WNW 08:57:46 10° SW
Okean 1-7 Rocket 3.6 08:59:01 10° S 09:03:32 84° W 09:08:01 10° N
CZ-2C R/B 2.5 08:59:21 10° N 09:03:47 54° WNW 09:08:15 10° SSW
Genesis I 4.2 09:00:37 10° NNW 09:04:07 49° NE 09:07:39 10° SE
Cosmos 1238 Rocket 3.5 09:06:40 10° NW 09:09:17 23° W 09:11:43 10° SW
Lacrosse 5 3.7 09:05:29 10° S 09:09:37 26° ESE 09:13:46 10° ENE
Cosmos-2242 3.0 09:06:17 10° NNW 09:10:34 65° W 09:14:47 10° S
